#datetime,building,power
2022-01-18T00:00:00,mnr,9.24
2022-01-18T00:01:00,mnr,9.29
2022-01-18T00:02:00,mnr,9.34
2022-01-18T00:03:00,mnr,9.65
2022-01-18T00:04:00,mnr,9.44
2022-01-18T00:05:00,mnr,9.55
2022-01-18T00:06:00,mnr,9.50
2022-01-18T00:07:00,mnr,10.59
2022-01-18T00:08:00,mnr,9.92
2022-01-18T00:09:00,mnr,10.03
2022-01-18T00:10:00,mnr,10.11
2022-01-18T00:11:00,mnr,10.47
2022-01-18T00:12:00,mnr,9.77
2022-01-18T00:13:00,mnr,9.82
2022-01-18T00:14:00,mnr,9.28
2022-01-18T00:15:00,mnr,9.93
2022-01-18T00:16:00,mnr,9.31
2022-01-18T00:17:00,mnr,9.28
2022-01-18T00:18:00,mnr,9.56
2022-01-18T00:19:00,mnr,9.95
2022-01-18T00:20:00,mnr,9.48
2022-01-18T00:21:00,mnr,9.30
2022-01-18T00:22:00,mnr,9.31
2022-01-18T00:23:00,mnr,9.28
2022-01-18T00:24:00,mnr,9.40
2022-01-18T00:25:00,mnr,9.33
2022-01-18T00:26:00,mnr,9.47
2022-01-18T00:27:00,mnr,10.24
2022-01-18T00:28:00,mnr,9.38
2022-01-18T00:29:00,mnr,9.37
2022-01-18T00:30:00,mnr,9.39
2022-01-18T00:31:00,mnr,9.44
2022-01-18T00:32:00,mnr,10.72
2022-01-18T00:33:00,mnr,9.43
2022-01-18T00:34:00,mnr,9.58
2022-01-18T00:35:00,mnr,9.46
2022-01-18T00:36:00,mnr,9.21
2022-01-18T00:37:00,mnr,9.33
2022-01-18T00:38:00,mnr,9.52
2022-01-18T00:39:00,mnr,9.13
2022-01-18T00:40:00,mnr,9.18
2022-01-18T00:41:00,mnr,8.70
2022-01-18T00:42:00,mnr,9.14
2022-01-18T00:43:00,mnr,8.80
2022-01-18T00:44:00,mnr,8.95
2022-01-18T00:45:00,mnr,8.71
2022-01-18T00:46:00,mnr,8.68
2022-01-18T00:47:00,mnr,9.51
2022-01-18T00:48:00,mnr,9.46
2022-01-18T00:49:00,mnr,9.41
2022-01-18T00:50:00,mnr,9.44
2022-01-18T00:51:00,mnr,9.44
2022-01-18T00:52:00,mnr,9.40
2022-01-18T00:53:00,mnr,9.82
2022-01-18T00:54:00,mnr,9.48
2022-01-18T00:55:00,mnr,9.49
2022-01-18T00:56:00,mnr,9.40
2022-01-18T00:57:00,mnr,9.57
2022-01-18T00:58:00,mnr,9.71
2022-01-18T00:59:00,mnr,9.41
2022-01-18T01:00:00,mnr,9.35
2022-01-18T01:01:00,mnr,9.56
2022-01-18T01:02:00,mnr,8.92
2022-01-18T01:03:00,mnr,9.01
2022-01-18T01:04:00,mnr,8.93
2022-01-18T01:05:00,mnr,8.90
2022-01-18T01:06:00,mnr,8.89
2022-01-18T01:07:00,mnr,8.61
2022-01-18T01:08:00,mnr,9.45
2022-01-18T01:09:00,mnr,8.80
2022-01-18T01:10:00,mnr,8.79
2022-01-18T01:11:00,mnr,8.99
2022-01-18T01:12:00,mnr,8.58
2022-01-18T01:13:00,mnr,8.54
2022-01-18T01:14:00,mnr,8.46
2022-01-18T01:15:00,mnr,8.43
2022-01-18T01:16:00,mnr,8.76
2022-01-18T01:17:00,mnr,8.45
2022-01-18T01:18:00,mnr,8.43
2022-01-18T01:19:00,mnr,9.09
2022-01-18T01:20:00,mnr,8.50
2022-01-18T01:21:00,mnr,8.46
2022-01-18T01:22:00,mnr,9.15
2022-01-18T01:23:00,mnr,8.65
2022-01-18T01:24:00,mnr,9.09
2022-01-18T01:25:00,mnr,8.57
2022-01-18T01:26:00,mnr,8.48
2022-01-18T01:27:00,mnr,9.10
2022-01-18T01:28:00,mnr,8.45
2022-01-18T01:29:00,mnr,8.68
2022-01-18T01:30:00,mnr,8.30
2022-01-18T01:31:00,mnr,8.33
2022-01-18T01:32:00,mnr,8.32
2022-01-18T01:33:00,mnr,8.89
2022-01-18T01:34:00,mnr,8.40
2022-01-18T01:35:00,mnr,8.39
2022-01-18T01:36:00,mnr,8.37
2022-01-18T01:37:00,mnr,8.31
2022-01-18T01:38:00,mnr,8.33
2022-01-18T01:39:00,mnr,7.69
2022-01-18T01:40:00,mnr,8.53
2022-01-18T01:41:00,mnr,7.69
2022-01-18T01:42:00,mnr,8.64
2022-01-18T01:43:00,mnr,7.73
2022-01-18T01:44:00,mnr,7.55
2022-01-18T01:45:00,mnr,8.04
2022-01-18T01:46:00,mnr,7.60
2022-01-18T01:47:00,mnr,7.64
2022-01-18T01:48:00,mnr,8.77
2022-01-18T01:49:00,mnr,7.67
2022-01-18T01:50:00,mnr,7.66
2022-01-18T01:51:00,mnr,7.66
2022-01-18T01:52:00,mnr,7.68
2022-01-18T01:53:00,mnr,8.25
2022-01-18T01:54:00,mnr,7.60
2022-01-18T01:55:00,mnr,7.63
2022-01-18T01:56:00,mnr,7.53
2022-01-18T01:57:00,mnr,7.51
2022-01-18T01:58:00,mnr,7.57
2022-01-18T01:59:00,mnr,7.68
2022-01-18T02:00:00,mnr,8.03
2022-01-18T02:01:00,mnr,7.97
2022-01-18T02:02:00,mnr,7.49
2022-01-18T02:03:00,mnr,7.44
2022-01-18T02:04:00,mnr,7.47
2022-01-18T02:05:00,mnr,7.46
2022-01-18T02:06:00,mnr,7.51
2022-01-18T02:07:00,mnr,7.51
2022-01-18T02:08:00,mnr,7.48
2022-01-18T02:09:00,mnr,7.46
2022-01-18T02:10:00,mnr,7.50
2022-01-18T02:11:00,mnr,7.55
2022-01-18T02:12:00,mnr,7.47
2022-01-18T02:13:00,mnr,7.46
2022-01-18T02:14:00,mnr,8.42
2022-01-18T02:15:00,mnr,8.10
2022-01-18T02:16:00,mnr,7.59
2022-01-18T02:17:00,mnr,8.04
2022-01-18T02:18:00,mnr,7.84
2022-01-18T02:19:00,mnr,7.09
2022-01-18T02:20:00,mnr,7.78
2022-01-18T02:21:00,mnr,8.30
2022-01-18T02:22:00,mnr,9.02
2022-01-18T02:23:00,mnr,8.35
2022-01-18T02:24:00,mnr,8.38
2022-01-18T02:25:00,mnr,9.53
2022-01-18T02:26:00,mnr,8.45
2022-01-18T02:27:00,mnr,8.46
2022-01-18T02:28:00,mnr,8.99
2022-01-18T02:29:00,mnr,8.39
2022-01-18T02:30:00,mnr,8.36
2022-01-18T02:31:00,mnr,8.29
2022-01-18T02:32:00,mnr,8.27
2022-01-18T02:33:00,mnr,8.47
2022-01-18T02:34:00,mnr,8.55
2022-01-18T02:35:00,mnr,8.91
2022-01-18T02:36:00,mnr,8.38
2022-01-18T02:37:00,mnr,8.24
2022-01-18T02:38:00,mnr,7.56
2022-01-18T02:39:00,mnr,7.61
2022-01-18T02:40:00,mnr,7.66
2022-01-18T02:41:00,mnr,7.62
2022-01-18T02:42:00,mnr,8.06
2022-01-18T02:43:00,mnr,7.66
2022-01-18T02:44:00,mnr,7.64
2022-01-18T02:45:00,mnr,7.73
2022-01-18T02:46:00,mnr,7.69
2022-01-18T02:47:00,mnr,8.55
2022-01-18T02:48:00,mnr,8.57
2022-01-18T02:49:00,mnr,8.52
2022-01-18T02:50:00,mnr,8.96
2022-01-18T02:51:00,mnr,8.97
2022-01-18T02:52:00,mnr,8.47
2022-01-18T02:53:00,mnr,8.38
2022-01-18T02:54:00,mnr,8.55
2022-01-18T02:55:00,mnr,8.42
2022-01-18T02:56:00,mnr,8.40
2022-01-18T02:57:00,mnr,8.50
2022-01-18T02:58:00,mnr,8.31
2022-01-18T02:59:00,mnr,8.29
2022-01-18T03:00:00,mnr,8.09
2022-01-18T03:01:00,mnr,7.52
2022-01-18T03:02:00,mnr,7.73
2022-01-18T03:03:00,mnr,6.81
2022-01-18T03:04:00,mnr,6.79
2022-01-18T03:05:00,mnr,6.77
2022-01-18T03:06:00,mnr,7.50
2022-01-18T03:07:00,mnr,7.39
2022-01-18T03:08:00,mnr,6.78
2022-01-18T03:09:00,mnr,7.15
2022-01-18T03:10:00,mnr,7.16
2022-01-18T03:11:00,mnr,6.54
2022-01-18T03:12:00,mnr,6.55
2022-01-18T03:13:00,mnr,6.65
2022-01-18T03:14:00,mnr,6.59
2022-01-18T03:15:00,mnr,6.70
2022-01-18T03:16:00,mnr,6.67
2022-01-18T03:17:00,mnr,6.95
2022-01-18T03:18:00,mnr,6.51
2022-01-18T03:19:00,mnr,6.56
2022-01-18T03:20:00,mnr,6.57
2022-01-18T03:21:00,mnr,6.60
2022-01-18T03:22:00,mnr,6.64
2022-01-18T03:23:00,mnr,6.54
2022-01-18T03:24:00,mnr,6.60
2022-01-18T03:25:00,mnr,6.58
2022-01-18T03:26:00,mnr,6.64
2022-01-18T03:27:00,mnr,6.66
2022-01-18T03:28:00,mnr,6.90
2022-01-18T03:29:00,mnr,8.24
2022-01-18T03:30:00,mnr,7.01
2022-01-18T03:31:00,mnr,6.67
2022-01-18T03:32:00,mnr,6.62
2022-01-18T03:33:00,mnr,6.79
2022-01-18T03:34:00,mnr,6.57
2022-01-18T03:35:00,mnr,7.12
2022-01-18T03:36:00,mnr,6.56
2022-01-18T03:37:00,mnr,6.88
2022-01-18T03:38:00,mnr,6.59
2022-01-18T03:39:00,mnr,7.04
2022-01-18T03:40:00,mnr,6.73
2022-01-18T03:41:00,mnr,6.64
2022-01-18T03:42:00,mnr,6.75
2022-01-18T03:43:00,mnr,7.05
2022-01-18T03:44:00,mnr,6.69
2022-01-18T03:45:00,mnr,7.23
2022-01-18T03:46:00,mnr,6.79
2022-01-18T03:47:00,mnr,6.62
2022-01-18T03:48:00,mnr,6.92
2022-01-18T03:49:00,mnr,6.56
2022-01-18T03:50:00,mnr,6.64
2022-01-18T03:51:00,mnr,6.53
2022-01-18T03:52:00,mnr,6.66
2022-01-18T03:53:00,mnr,6.59
2022-01-18T03:54:00,mnr,6.62
2022-01-18T03:55:00,mnr,6.62
2022-01-18T03:56:00,mnr,6.60
2022-01-18T03:57:00,mnr,6.55
2022-01-18T03:58:00,mnr,6.63
2022-01-18T03:59:00,mnr,6.67
2022-01-18T04:00:00,mnr,6.74
2022-01-18T04:01:00,mnr,6.66
2022-01-18T04:02:00,mnr,7.39
2022-01-18T04:03:00,mnr,6.68
2022-01-18T04:04:00,mnr,6.98
2022-01-18T04:05:00,mnr,7.30
2022-01-18T04:06:00,mnr,7.14
2022-01-18T04:07:00,mnr,6.73
2022-01-18T04:08:00,mnr,6.77
2022-01-18T04:09:00,mnr,6.75
2022-01-18T04:10:00,mnr,7.04
2022-01-18T04:11:00,mnr,6.67
2022-01-18T04:12:00,mnr,6.62
2022-01-18T04:13:00,mnr,8.08
2022-01-18T04:14:00,mnr,6.69
2022-01-18T04:15:00,mnr,6.74
2022-01-18T04:16:00,mnr,6.69
2022-01-18T04:17:00,mnr,6.68
2022-01-18T04:18:00,mnr,6.58
2022-01-18T04:19:00,mnr,6.82
2022-01-18T04:20:00,mnr,7.08
2022-01-18T04:21:00,mnr,7.56
2022-01-18T04:22:00,mnr,7.29
2022-01-18T04:23:00,mnr,6.93
2022-01-18T04:24:00,mnr,6.86
2022-01-18T04:25:00,mnr,6.84
2022-01-18T04:26:00,mnr,6.86
2022-01-18T04:27:00,mnr,7.66
2022-01-18T04:28:00,mnr,6.72
2022-01-18T04:29:00,mnr,7.24
2022-01-18T04:30:00,mnr,6.78
2022-01-18T04:31:00,mnr,6.77
2022-01-18T04:32:00,mnr,6.67
2022-01-18T04:33:00,mnr,6.75
2022-01-18T04:34:00,mnr,6.87
2022-01-18T04:35:00,mnr,6.83
2022-01-18T04:36:00,mnr,6.80
2022-01-18T04:37:00,mnr,6.91
2022-01-18T04:38:00,mnr,7.29
2022-01-18T04:39:00,mnr,6.86
2022-01-18T04:40:00,mnr,6.79
2022-01-18T04:41:00,mnr,6.76
2022-01-18T04:42:00,mnr,6.72
2022-01-18T04:43:00,mnr,6.70
2022-01-18T04:44:00,mnr,6.95
2022-01-18T04:45:00,mnr,6.75
2022-01-18T04:46:00,mnr,6.96
2022-01-18T04:47:00,mnr,6.93
2022-01-18T04:48:00,mnr,7.52
2022-01-18T04:49:00,mnr,6.94
2022-01-18T04:50:00,mnr,6.98
2022-01-18T04:51:00,mnr,6.95
2022-01-18T04:52:00,mnr,7.30
2022-01-18T04:53:00,mnr,7.59
2022-01-18T04:54:00,mnr,7.50
2022-01-18T04:55:00,mnr,7.43
2022-01-18T04:56:00,mnr,6.97
2022-01-18T04:57:00,mnr,7.01
2022-01-18T04:58:00,mnr,7.00
2022-01-18T04:59:00,mnr,7.70
2022-01-18T05:00:00,mnr,7.08
2022-01-18T05:01:00,mnr,8.24
2022-01-18T05:02:00,mnr,10.72
2022-01-18T05:03:00,mnr,11.88
2022-01-18T05:04:00,mnr,12.05
2022-01-18T05:05:00,mnr,12.82
2022-01-18T05:06:00,mnr,12.14
2022-01-18T05:07:00,mnr,12.05
2022-01-18T05:08:00,mnr,12.03
2022-01-18T05:09:00,mnr,12.26
2022-01-18T05:10:00,mnr,12.48
2022-01-18T05:11:00,mnr,13.31
2022-01-18T05:12:00,mnr,12.85
2022-01-18T05:13:00,mnr,13.67
2022-01-18T05:14:00,mnr,13.29
2022-01-18T05:15:00,mnr,13.71
2022-01-18T05:16:00,mnr,14.50
2022-01-18T05:17:00,mnr,13.71
2022-01-18T05:18:00,mnr,13.73
2022-01-18T05:19:00,mnr,14.50
2022-01-18T05:20:00,mnr,13.61
2022-01-18T05:21:00,mnr,13.64
2022-01-18T05:22:00,mnr,13.85
2022-01-18T05:23:00,mnr,14.22
2022-01-18T05:24:00,mnr,13.73
2022-01-18T05:25:00,mnr,14.57
2022-01-18T05:26:00,mnr,13.71
2022-01-18T05:27:00,mnr,14.88
2022-01-18T05:28:00,mnr,13.73
2022-01-18T05:29:00,mnr,13.73
2022-01-18T05:30:00,mnr,14.25
2022-01-18T05:31:00,mnr,14.50
2022-01-18T05:32:00,mnr,14.52
2022-01-18T05:33:00,mnr,14.44
2022-01-18T05:34:00,mnr,15.02
2022-01-18T05:35:00,mnr,14.31
2022-01-18T05:36:00,mnr,14.27
2022-01-18T05:37:00,mnr,14.27
2022-01-18T05:38:00,mnr,14.61
2022-01-18T05:39:00,mnr,14.19
2022-01-18T05:40:00,mnr,14.23
2022-01-18T05:41:00,mnr,14.84
2022-01-18T05:42:00,mnr,14.24
2022-01-18T05:43:00,mnr,15.12
2022-01-18T05:44:00,mnr,14.84
2022-01-18T05:45:00,mnr,14.85
2022-01-18T05:46:00,mnr,14.46
2022-01-18T05:47:00,mnr,14.13
2022-01-18T05:48:00,mnr,19.11
2022-01-18T05:49:00,mnr,15.08
2022-01-18T05:50:00,mnr,15.17
2022-01-18T05:51:00,mnr,15.18
2022-01-18T05:52:00,mnr,15.57
2022-01-18T05:53:00,mnr,15.20
2022-01-18T05:54:00,mnr,15.27
2022-01-18T05:55:00,mnr,15.30
2022-01-18T05:56:00,mnr,14.65
2022-01-18T05:57:00,mnr,15.04
2022-01-18T05:58:00,mnr,15.26
2022-01-18T05:59:00,mnr,15.51
2022-01-18T06:00:00,mnr,15.16
2022-01-18T06:01:00,mnr,15.45
2022-01-18T06:02:00,mnr,15.61
2022-01-18T06:03:00,mnr,14.39
2022-01-18T06:04:00,mnr,14.36
2022-01-18T06:05:00,mnr,14.76
2022-01-18T06:06:00,mnr,15.44
2022-01-18T06:07:00,mnr,14.81
2022-01-18T06:08:00,mnr,14.91
2022-01-18T06:09:00,mnr,14.66
2022-01-18T06:10:00,mnr,14.47
2022-01-18T06:11:00,mnr,14.42
2022-01-18T06:12:00,mnr,14.33
2022-01-18T06:13:00,mnr,14.41
2022-01-18T06:14:00,mnr,15.78
2022-01-18T06:15:00,mnr,14.56
2022-01-18T06:16:00,mnr,14.53
2022-01-18T06:17:00,mnr,14.96
2022-01-18T06:18:00,mnr,14.53
2022-01-18T06:19:00,mnr,15.27
2022-01-18T06:20:00,mnr,14.49
2022-01-18T06:21:00,mnr,14.59
2022-01-18T06:22:00,mnr,14.70
2022-01-18T06:23:00,mnr,14.64
2022-01-18T06:24:00,mnr,14.49
2022-01-18T06:25:00,mnr,15.64
2022-01-18T06:26:00,mnr,14.93
2022-01-18T06:27:00,mnr,14.75
2022-01-18T06:28:00,mnr,14.27
2022-01-18T06:29:00,mnr,14.35
2022-01-18T06:30:00,mnr,14.35
2022-01-18T06:31:00,mnr,15.70
2022-01-18T06:32:00,mnr,14.18
2022-01-18T06:33:00,mnr,14.87
2022-01-18T06:34:00,mnr,14.25
2022-01-18T06:35:00,mnr,14.25
2022-01-18T06:36:00,mnr,14.27
2022-01-18T06:37:00,mnr,14.25
2022-01-18T06:38:00,mnr,13.81
2022-01-18T06:39:00,mnr,13.60
2022-01-18T06:40:00,mnr,13.94
2022-01-18T06:41:00,mnr,14.15
2022-01-18T06:42:00,mnr,13.86
2022-01-18T06:43:00,mnr,14.48
2022-01-18T06:44:00,mnr,15.52
2022-01-18T06:45:00,mnr,15.19
2022-01-18T06:46:00,mnr,15.12
2022-01-18T06:47:00,mnr,15.19
2022-01-18T06:48:00,mnr,15.12
2022-01-18T06:49:00,mnr,15.30
2022-01-18T06:50:00,mnr,15.38
2022-01-18T06:51:00,mnr,15.37
2022-01-18T06:52:00,mnr,15.35
2022-01-18T06:53:00,mnr,16.48
2022-01-18T06:54:00,mnr,16.70
2022-01-18T06:55:00,mnr,15.30
2022-01-18T06:56:00,mnr,15.39
2022-01-18T06:57:00,mnr,15.26
2022-01-18T06:58:00,mnr,15.36
2022-01-18T06:59:00,mnr,15.22
2022-01-18T07:00:00,mnr,15.10
2022-01-18T07:01:00,mnr,15.13
2022-01-18T07:02:00,mnr,15.16
2022-01-18T07:03:00,mnr,15.80
2022-01-18T07:04:00,mnr,15.04
2022-01-18T07:05:00,mnr,15.24
2022-01-18T07:06:00,mnr,15.38
2022-01-18T07:07:00,mnr,14.99
2022-01-18T07:08:00,mnr,14.90
2022-01-18T07:09:00,mnr,14.82
2022-01-18T07:10:00,mnr,14.82
2022-01-18T07:11:00,mnr,14.58
2022-01-18T07:12:00,mnr,14.76
2022-01-18T07:13:00,mnr,14.79
2022-01-18T07:14:00,mnr,14.80
2022-01-18T07:15:00,mnr,14.84
2022-01-18T07:16:00,mnr,14.82
2022-01-18T07:17:00,mnr,14.86
2022-01-18T07:18:00,mnr,14.80
2022-01-18T07:19:00,mnr,14.75
2022-01-18T07:20:00,mnr,15.18
2022-01-18T07:21:00,mnr,15.38
2022-01-18T07:22:00,mnr,15.10
2022-01-18T07:23:00,mnr,15.04
2022-01-18T07:24:00,mnr,15.77
2022-01-18T07:25:00,mnr,14.88
2022-01-18T07:26:00,mnr,14.57
2022-01-18T07:27:00,mnr,14.12
2022-01-18T07:28:00,mnr,14.19
2022-01-18T07:29:00,mnr,14.21
2022-01-18T07:30:00,mnr,14.22
2022-01-18T07:31:00,mnr,14.34
2022-01-18T07:32:00,mnr,13.76
2022-01-18T07:33:00,mnr,13.69
2022-01-18T07:34:00,mnr,13.55
2022-01-18T07:35:00,mnr,13.43
2022-01-18T07:36:00,mnr,13.41
2022-01-18T07:37:00,mnr,13.49
2022-01-18T07:38:00,mnr,13.58
2022-01-18T07:39:00,mnr,13.62
2022-01-18T07:40:00,mnr,14.17
2022-01-18T07:41:00,mnr,14.05
2022-01-18T07:42:00,mnr,13.64
2022-01-18T07:43:00,mnr,12.96
2022-01-18T07:44:00,mnr,12.86
2022-01-18T07:45:00,mnr,13.48
2022-01-18T07:46:00,mnr,13.38
2022-01-18T07:47:00,mnr,14.21
2022-01-18T07:48:00,mnr,13.28
2022-01-18T07:49:00,mnr,13.29
2022-01-18T07:50:00,mnr,13.72
2022-01-18T07:51:00,mnr,13.38
2022-01-18T07:52:00,mnr,13.41
2022-01-18T07:53:00,mnr,13.48
2022-01-18T07:54:00,mnr,14.00
2022-01-18T07:55:00,mnr,13.98
2022-01-18T07:56:00,mnr,13.33
2022-01-18T07:57:00,mnr,13.33
2022-01-18T07:58:00,mnr,13.38
2022-01-18T07:59:00,mnr,13.38
2022-01-18T08:00:00,mnr,13.39
2022-01-18T08:01:00,mnr,13.45
2022-01-18T08:02:00,mnr,13.43
2022-01-18T08:03:00,mnr,13.50
2022-01-18T08:04:00,mnr,13.56
2022-01-18T08:05:00,mnr,12.92
2022-01-18T08:06:00,mnr,12.91
2022-01-18T08:07:00,mnr,12.94
2022-01-18T08:08:00,mnr,12.92
2022-01-18T08:09:00,mnr,13.46
2022-01-18T08:10:00,mnr,12.81
2022-01-18T08:11:00,mnr,12.91
2022-01-18T08:12:00,mnr,13.05
2022-01-18T08:13:00,mnr,13.51
2022-01-18T08:14:00,mnr,13.13
2022-01-18T08:15:00,mnr,13.11
2022-01-18T08:16:00,mnr,13.11
2022-01-18T08:17:00,mnr,13.09
2022-01-18T08:18:00,mnr,13.12
2022-01-18T08:19:00,mnr,12.98
2022-01-18T08:20:00,mnr,12.82
2022-01-18T08:21:00,mnr,12.51
2022-01-18T08:22:00,mnr,12.58
2022-01-18T08:23:00,mnr,12.53
2022-01-18T08:24:00,mnr,12.67
2022-01-18T08:25:00,mnr,12.63
2022-01-18T08:26:00,mnr,12.70
2022-01-18T08:27:00,mnr,12.65
2022-01-18T08:28:00,mnr,13.17
2022-01-18T08:29:00,mnr,12.14
2022-01-18T08:30:00,mnr,12.50
2022-01-18T08:31:00,mnr,12.32
2022-01-18T08:32:00,mnr,12.72
2022-01-18T08:33:00,mnr,12.72
2022-01-18T08:34:00,mnr,12.68
2022-01-18T08:35:00,mnr,12.60
2022-01-18T08:36:00,mnr,13.04
2022-01-18T08:37:00,mnr,12.72
2022-01-18T08:38:00,mnr,12.89
2022-01-18T08:39:00,mnr,12.82
2022-01-18T08:40:00,mnr,12.96
2022-01-18T08:41:00,mnr,12.91
2022-01-18T08:42:00,mnr,13.54
2022-01-18T08:43:00,mnr,14.26
2022-01-18T08:44:00,mnr,14.30
2022-01-18T08:45:00,mnr,14.26
2022-01-18T08:46:00,mnr,14.25
2022-01-18T08:47:00,mnr,15.73
2022-01-18T08:48:00,mnr,15.37
2022-01-18T08:49:00,mnr,15.84
2022-01-18T08:50:00,mnr,15.65
2022-01-18T08:51:00,mnr,15.81
2022-01-18T08:52:00,mnr,15.84
2022-01-18T08:53:00,mnr,16.18
2022-01-18T08:54:00,mnr,15.93
2022-01-18T08:55:00,mnr,16.61
2022-01-18T08:56:00,mnr,16.83
2022-01-18T08:57:00,mnr,16.97
2022-01-18T08:58:00,mnr,16.79
2022-01-18T08:59:00,mnr,18.33
2022-01-18T09:00:00,mnr,17.26
2022-01-18T09:01:00,mnr,17.48
2022-01-18T09:02:00,mnr,17.52
2022-01-18T09:03:00,mnr,17.78
2022-01-18T09:04:00,mnr,17.51
2022-01-18T09:05:00,mnr,18.16
2022-01-18T09:06:00,mnr,17.86
2022-01-18T09:07:00,mnr,17.47
2022-01-18T09:08:00,mnr,18.20
2022-01-18T09:09:00,mnr,17.53
2022-01-18T09:10:00,mnr,18.02
2022-01-18T09:11:00,mnr,18.40
2022-01-18T09:12:00,mnr,17.48
2022-01-18T09:13:00,mnr,18.46
2022-01-18T09:14:00,mnr,17.94
2022-01-18T09:15:00,mnr,17.46
2022-01-18T09:16:00,mnr,17.44
2022-01-18T09:17:00,mnr,17.29
2022-01-18T09:18:00,mnr,16.79
2022-01-18T09:19:00,mnr,16.58
2022-01-18T09:20:00,mnr,16.61
2022-01-18T09:21:00,mnr,16.51
2022-01-18T09:22:00,mnr,17.93
2022-01-18T09:23:00,mnr,16.36
2022-01-18T09:24:00,mnr,17.37
2022-01-18T09:25:00,mnr,16.19
2022-01-18T09:26:00,mnr,15.95
2022-01-18T09:27:00,mnr,15.82
2022-01-18T09:28:00,mnr,15.75
2022-01-18T09:29:00,mnr,16.42
2022-01-18T09:30:00,mnr,17.11
2022-01-18T09:31:00,mnr,17.19
2022-01-18T09:32:00,mnr,15.66
2022-01-18T09:33:00,mnr,16.01
2022-01-18T09:34:00,mnr,16.75
2022-01-18T09:35:00,mnr,16.09
2022-01-18T09:36:00,mnr,16.58
2022-01-18T09:37:00,mnr,16.16
2022-01-18T09:38:00,mnr,15.96
2022-01-18T09:39:00,mnr,16.15
2022-01-18T09:40:00,mnr,15.92
2022-01-18T09:41:00,mnr,15.83
2022-01-18T09:42:00,mnr,16.71
2022-01-18T09:43:00,mnr,15.79
2022-01-18T09:44:00,mnr,15.82
2022-01-18T09:45:00,mnr,15.35
2022-01-18T09:46:00,mnr,15.96
2022-01-18T09:47:00,mnr,15.93
2022-01-18T09:48:00,mnr,17.28
2022-01-18T09:49:00,mnr,16.16
2022-01-18T09:50:00,mnr,16.15
2022-01-18T09:51:00,mnr,16.47
2022-01-18T09:52:00,mnr,16.23
2022-01-18T09:53:00,mnr,16.08
2022-01-18T09:54:00,mnr,16.02
2022-01-18T09:55:00,mnr,16.67
2022-01-18T09:56:00,mnr,15.97
2022-01-18T09:57:00,mnr,16.04
2022-01-18T09:58:00,mnr,16.15
2022-01-18T09:59:00,mnr,16.75
2022-01-18T10:00:00,mnr,16.06
2022-01-18T10:01:00,mnr,15.67
2022-01-18T10:02:00,mnr,15.85
2022-01-18T10:03:00,mnr,15.91
2022-01-18T10:04:00,mnr,17.34
2022-01-18T10:05:00,mnr,16.25
2022-01-18T10:06:00,mnr,16.18
2022-01-18T10:07:00,mnr,15.80
2022-01-18T10:08:00,mnr,15.75
2022-01-18T10:09:00,mnr,15.98
2022-01-18T10:10:00,mnr,15.39
2022-01-18T10:11:00,mnr,15.47
2022-01-18T10:12:00,mnr,15.51
2022-01-18T10:13:00,mnr,15.56
2022-01-18T10:14:00,mnr,16.13
2022-01-18T10:15:00,mnr,16.22
2022-01-18T10:16:00,mnr,15.53
2022-01-18T10:17:00,mnr,14.99
2022-01-18T10:18:00,mnr,15.42
2022-01-18T10:19:00,mnr,15.43
2022-01-18T10:20:00,mnr,16.60
2022-01-18T10:21:00,mnr,15.44
2022-01-18T10:22:00,mnr,15.40
2022-01-18T10:23:00,mnr,16.80
2022-01-18T10:24:00,mnr,16.05
2022-01-18T10:25:00,mnr,16.39
2022-01-18T10:26:00,mnr,17.16
2022-01-18T10:27:00,mnr,16.21
2022-01-18T10:28:00,mnr,16.72
2022-01-18T10:29:00,mnr,13.38
2022-01-18T10:30:00,mnr,16.15
2022-01-18T10:31:00,mnr,16.86
2022-01-18T10:32:00,mnr,16.38
2022-01-18T10:33:00,mnr,16.06
2022-01-18T10:34:00,mnr,16.00
2022-01-18T10:35:00,mnr,16.68
2022-01-18T10:36:00,mnr,16.18
2022-01-18T10:37:00,mnr,16.04
2022-01-18T10:38:00,mnr,17.17
2022-01-18T10:39:00,mnr,17.05
2022-01-18T10:40:00,mnr,16.13
2022-01-18T10:41:00,mnr,16.03
2022-01-18T10:42:00,mnr,15.54
2022-01-18T10:43:00,mnr,15.76
2022-01-18T10:44:00,mnr,15.70
2022-01-18T10:45:00,mnr,15.73
2022-01-18T10:46:00,mnr,15.82
2022-01-18T10:47:00,mnr,15.44
2022-01-18T10:48:00,mnr,16.04
2022-01-18T10:49:00,mnr,15.87
2022-01-18T10:50:00,mnr,15.21
2022-01-18T10:51:00,mnr,14.68
2022-01-18T10:52:00,mnr,15.93
2022-01-18T10:53:00,mnr,15.16
2022-01-18T10:54:00,mnr,15.23
2022-01-18T10:55:00,mnr,15.56
2022-01-18T10:56:00,mnr,15.25
2022-01-18T10:57:00,mnr,15.26
2022-01-18T10:58:00,mnr,15.25
2022-01-18T10:59:00,mnr,15.79
2022-01-18T11:00:00,mnr,16.89
2022-01-18T11:01:00,mnr,15.72
2022-01-18T11:02:00,mnr,15.40
2022-01-18T11:03:00,mnr,15.44
2022-01-18T11:04:00,mnr,15.85
2022-01-18T11:05:00,mnr,15.41
2022-01-18T11:06:00,mnr,14.64
2022-01-18T11:07:00,mnr,14.69
2022-01-18T11:08:00,mnr,14.65
2022-01-18T11:09:00,mnr,14.54
2022-01-18T11:10:00,mnr,15.95
2022-01-18T11:11:00,mnr,15.90
2022-01-18T11:12:00,mnr,15.90
2022-01-18T11:13:00,mnr,15.87
2022-01-18T11:14:00,mnr,15.90
2022-01-18T11:15:00,mnr,16.48
2022-01-18T11:16:00,mnr,15.27
2022-01-18T11:17:00,mnr,15.13
2022-01-18T11:18:00,mnr,16.03
2022-01-18T11:19:00,mnr,14.83
2022-01-18T11:20:00,mnr,15.07
2022-01-18T11:21:00,mnr,14.82
2022-01-18T11:22:00,mnr,15.02
2022-01-18T11:23:00,mnr,15.78
2022-01-18T11:24:00,mnr,15.82
2022-01-18T11:25:00,mnr,16.56
2022-01-18T11:26:00,mnr,15.81
2022-01-18T11:27:00,mnr,15.18
2022-01-18T11:28:00,mnr,16.47
2022-01-18T11:29:00,mnr,15.34
2022-01-18T11:30:00,mnr,16.49
2022-01-18T11:31:00,mnr,16.62
2022-01-18T11:32:00,mnr,15.64
2022-01-18T11:33:00,mnr,15.66
2022-01-18T11:34:00,mnr,15.69
2022-01-18T11:35:00,mnr,16.39
2022-01-18T11:36:00,mnr,16.09
2022-01-18T11:37:00,mnr,15.83
2022-01-18T11:38:00,mnr,16.99
2022-01-18T11:39:00,mnr,16.48
2022-01-18T11:40:00,mnr,16.49
2022-01-18T11:41:00,mnr,16.20
2022-01-18T11:42:00,mnr,17.06
2022-01-18T11:43:00,mnr,16.37
2022-01-18T11:44:00,mnr,16.44
2022-01-18T11:45:00,mnr,16.33
2022-01-18T11:46:00,mnr,16.87
2022-01-18T11:47:00,mnr,16.87
2022-01-18T11:48:00,mnr,16.96
2022-01-18T11:49:00,mnr,16.43
2022-01-18T11:50:00,mnr,16.36
2022-01-18T11:51:00,mnr,16.51
2022-01-18T11:52:00,mnr,16.35
2022-01-18T11:53:00,mnr,16.91
2022-01-18T11:54:00,mnr,16.29
2022-01-18T11:55:00,mnr,16.37
2022-01-18T11:56:00,mnr,16.29
2022-01-18T11:57:00,mnr,16.74
2022-01-18T11:58:00,mnr,15.67
2022-01-18T11:59:00,mnr,15.75
2022-01-18T12:00:00,mnr,15.40
2022-01-18T12:01:00,mnr,15.22
2022-01-18T12:02:00,mnr,15.75
2022-01-18T12:03:00,mnr,14.83
2022-01-18T12:04:00,mnr,15.61
2022-01-18T12:05:00,mnr,15.82
2022-01-18T12:06:00,mnr,15.19
2022-01-18T12:07:00,mnr,14.74
2022-01-18T12:08:00,mnr,16.21
2022-01-18T12:09:00,mnr,16.35
2022-01-18T12:10:00,mnr,15.68
2022-01-18T12:11:00,mnr,15.52
2022-01-18T12:12:00,mnr,16.28
2022-01-18T12:13:00,mnr,16.32
2022-01-18T12:14:00,mnr,16.19
2022-01-18T12:15:00,mnr,17.80
2022-01-18T12:16:00,mnr,16.24
2022-01-18T12:17:00,mnr,16.25
2022-01-18T12:18:00,mnr,16.77
2022-01-18T12:19:00,mnr,17.00
2022-01-18T12:20:00,mnr,16.89
2022-01-18T12:21:00,mnr,16.56
2022-01-18T12:22:00,mnr,16.17
2022-01-18T12:23:00,mnr,16.13
2022-01-18T12:24:00,mnr,16.53
2022-01-18T12:25:00,mnr,16.48
2022-01-18T12:26:00,mnr,15.85
2022-01-18T12:27:00,mnr,16.30
2022-01-18T12:28:00,mnr,15.74
2022-01-18T12:29:00,mnr,15.78
2022-01-18T12:30:00,mnr,15.75
2022-01-18T12:31:00,mnr,15.73
2022-01-18T12:32:00,mnr,15.26
2022-01-18T12:33:00,mnr,15.27
2022-01-18T12:34:00,mnr,15.31
2022-01-18T12:35:00,mnr,15.12
2022-01-18T12:36:00,mnr,15.01
2022-01-18T12:37:00,mnr,14.64
2022-01-18T12:38:00,mnr,15.40
2022-01-18T12:39:00,mnr,15.14
2022-01-18T12:40:00,mnr,15.72
2022-01-18T12:41:00,mnr,15.08
2022-01-18T12:42:00,mnr,14.74
2022-01-18T12:43:00,mnr,14.63
2022-01-18T12:44:00,mnr,14.60
2022-01-18T12:45:00,mnr,14.74
2022-01-18T12:46:00,mnr,14.71
2022-01-18T12:47:00,mnr,14.96
2022-01-18T12:48:00,mnr,18.01
2022-01-18T12:49:00,mnr,14.81
2022-01-18T12:50:00,mnr,14.92
2022-01-18T12:51:00,mnr,14.97
2022-01-18T12:52:00,mnr,14.78
2022-01-18T12:53:00,mnr,14.81
2022-01-18T12:54:00,mnr,24.56
2022-01-18T12:55:00,mnr,14.88
2022-01-18T12:56:00,mnr,12.43
2022-01-18T12:57:00,mnr,15.71
2022-01-18T12:58:00,mnr,16.54
2022-01-18T12:59:00,mnr,15.86
2022-01-18T13:00:00,mnr,15.43
2022-01-18T13:01:00,mnr,16.09
2022-01-18T13:02:00,mnr,16.12
2022-01-18T13:03:00,mnr,16.64
2022-01-18T13:04:00,mnr,16.10
2022-01-18T13:05:00,mnr,15.94
2022-01-18T13:06:00,mnr,15.39
2022-01-18T13:07:00,mnr,15.65
2022-01-18T13:08:00,mnr,16.16
2022-01-18T13:09:00,mnr,15.52
2022-01-18T13:10:00,mnr,15.51
2022-01-18T13:11:00,mnr,16.45
2022-01-18T13:12:00,mnr,15.93
2022-01-18T13:13:00,mnr,15.94
2022-01-18T13:14:00,mnr,17.07
2022-01-18T13:15:00,mnr,17.66
2022-01-18T13:16:00,mnr,17.16
2022-01-18T13:17:00,mnr,17.00
2022-01-18T13:18:00,mnr,15.61
2022-01-18T13:19:00,mnr,15.52
2022-01-18T13:20:00,mnr,15.60
2022-01-18T13:21:00,mnr,22.90
2022-01-18T13:22:00,mnr,15.78
2022-01-18T13:23:00,mnr,16.62
2022-01-18T13:24:00,mnr,16.50
2022-01-18T13:25:00,mnr,17.39
2022-01-18T13:26:00,mnr,16.87
2022-01-18T13:27:00,mnr,16.77
2022-01-18T13:28:00,mnr,15.69